Location: Biharia
(46.4333°N, 22.8000°E)
Time: 04:21:26
(UTC+00:00)

Cosmos 494 Rocket - Pass Details

Date: 25 May 2022
Orbit: 742 x 770 km, 74.1° (Epoch: 05 July)

Event Time Altitude Azimuth Distance (km) Brightness Sun altitude
Rises 21:47:16 0° 345° (NNW) 3,195 8.7 -21.9°
Reaches altitude 10° 21:49:57 10° 357° (N) 2,266 7.6 -22.0°
Maximum altitude 21:54:22 28° 57° (ENE) 1,365 5.5 -22.1°
Enters shadow 21:57:08 18° 103° (ESE) 1,770 5.7 -22.2°
